Cloud_Cover
5 5 65 100 32 4 6 88 98 59 81 12 15 3 0 0 4 2 0 6 73 1 3 0 0 5 5 1 0 0 0 2 0 0 0 0 0 0 0 0 0 11 97 98
91 99 99 92 100 100 100 99 94 5 24 95 54 5 5 5 5 5 5 0 1 5 5 1 0 0 4 3 0 5 0 0 0 0 0 0 0 0 0 2 0 5 58 100
5 5 5 50 73 100 100 98 100 99 26 46 5 5 5 5 5 5 0 0 0 1 4 0 1 0 0 0 0 2 0 0 1 5 5 2 3 5 3 19 84 46 88 100
0 0 1 5 4 94 82 62 83 100 100 26 0 52 5 0 0 0 0 0 1 2 5 0 28 5 0 0 0 0 0 2 5 6 19 47 7 5 33 98 94 100 100 100
0 0 0 0 0 0 0 4 23 84 95 5 5 68 6 0 2 0 1 0 2 0 94 6 71 100 44 5 5 3 0 0 5 5 5 5 28 9 100 63 100 100 100 100
0 0 0 0 0 0 0 0 0 3 60 11 5 8 5 3 4 0 0 3 2 73 97 100 74 100 100 56 5 5 5 5 5 5 5 28 100 100 56 100 100 100 100 95
0 0 0 0 0 0 0 0 0 0 0 0 0 1 0 0 22 4 41 93 19 96 85 94 21 5 5 5 1 5 1 3 0 1 84 82 69 100 98 100 100 56 22 91
0 0 0 0 0 0 0 0 0 0 0 0 0 2 0 15 89 7 7 66 4 10 50 14 6 5 8 28 5 0 3 1 0 0 4 52 100 100 98 73 56 31 94 73
0 0 0 0 0 0 0 0 0 0 0 0 0 0 1 11 100 100 81 39 9 5 3 77 85 3 0 5 99 100 99 87 27 46 76 98 100 100 100 75 91 100 100 65
8 2 0 5 2 0 0 0 0 0 0 0 0 0 5 5 0 60 46 74 65 99 24 14 73 60 5 4 96 21 44 67 76 100 82 100 100 100 100 100 100 100 90 11
45 11 0 0 0 0 0 0 0 0 0 0 0 0 0 0 0 0 18 64 95 100 50 100 100 100 69 73 100 2 2 5 6 38 99 87 100 100 100 100 100 42 1 0
0 0 0 0 0 0 0 0 2 0 2 0 0 62 0 0 0 0 0 5 0 0 15 90 99 77 18 28 85 5 0 3 4 5 12 100 100 100 100 100 43 16 5 6
0 0 1 5 1 0 1 5 5 5 0 0 0 16 37 1 0 0 0 0 3 0 0 8 86 98 100 89 42 6 5 0 27 5 88 100 100 100 86 60 10 5 25 5
0 0 10 91 100 13 15 15 5 5 4 4 71 3 86 100 48 2 0 0 0 0 1 10 100 43 74 9 3 0 0 0 1 65 100 100 80 5 86 5 5 5 5 9
4 2 0 3 40 100 100 96 90 7 3 3 0 0 3 12 0 11 14 4 0 0 6 7 0 0 1 0 1 13 95 99 100 70 98 100 60 16 96 96 6 10 97 100
12 6 3 39 65 100 100 100 64 73 6 5 5 4 5 5 0 0 46 100 100 60 11 2 0 0 0 0 2 100 100 100 100 100 100 100 100 67 72 97 100 93 100 100
6 80 96 100 100 100 100 100 100 60 6 5 4 0 7 5 0 0 1 99 100 100 100 30 0 0 0 36 100 100 100 100 100 100 100 100 100 100 100 78 100 100 100 100
83 15 64 100 100 100 100 100 100 91 15 14 1 59 100 15 0 0 4 2 89 100 100 67 34 4 14 80 100 100 100 100 100 100 100 100 100 100 100 37 99 100 95 98
54 70 32 86 100 100 100 100 100 100 73 6 100 100 24 5 4 0 8 58 98 100 100 95 24 11 4 81 100 100 100 100 100 100 100 100 100 100 96 97 94 97 6 39
47 97 90 100 100 100 100 100 100 100 82 100 100 91 5 4 1 5 100 100 100 100 100 90 41 100 100 5 97 100 100 100 100 100 100 100 100 100 100 51 33 32 8 100
100 99 84 100 100 100 100 100 100 100 100 100 70 5 5 4 5 15 99 100 100 98 100 94 100 100 100 20 5 94 100 100 100 100 100 100 100 100 87 100 97 70 11 83
99 10 86 100 100 100 100 100 100 100 92 10 17 5 5 5 79 100 100 100 100 100 100 100 100 100 100 72 5 56 100 98 100 100 100 100 100 92 100 100 100 100 99 41
100 100 100 100 100 100 100 65 80 44 8 15 37 90 5 5 98 100 100 100 100 100 100 99 100 29 79 93 5 6 100 100 100 100 100 100 100 100 100 100 100 90 84 99
99 100 66 26 5 24 90 77 60 6 4 0 6 99 96 94 100 100 100 100 100 100 85 12 7 6 99 100 89 83 86 100 100 100 100 99 64 100 100 100 100 100 53 69
100 100 10 15 97 100 97 46 11 5 5 5 2 4 75 100 100 100 100 100 100 100 100 100 94 44 94 90 84 27 23 100 100 100 100 100 91 93 100 100 100 82 18 30
92 8 87 100 90 12 25 4 3 57 66 76 68 8 12 99 72 100 100 100 100 100 100 100 100 98 100 100 26 100 94 100 100 100 100 100 76 100 100 100 70 100 50 17